TVF26EN LFPO-LTFJ

Flight info

Callsign TVF26EN
Flight time N/A
Altitude 37000
Route BUBLI DCT LUVAL DCT BEGAR DCT TRA DCT GAMSA DCT GEDSO DCT NISVA DCT BUFRA DCT ADORU UM19 IBODU
Aircraft B738/M-SDE2E3FGHIRWXY/LB1

Departure

Time 2026-05-04 10:54
Airport Paris-Orly Airport (LFPO)

Arrival

Time N/A
Airport Istanbul Sabiha Gökçen International Airport (LTFJ)
Time Latitude Longitude Altitude Speed Heading
2026-05-04 10:33 48.73075 2.35893 302 ft 0 kts 134°
2026-05-04 10:49 48.73110 2.35782 299 ft 0 kts 55°
2026-05-04 10:50 48.73110 2.35783 299 ft 2 kts 55°
2026-05-04 10:51 48.73506 2.35973 298 ft 11 kts 252°
2026-05-04 10:52 48.73482 2.35889 300 ft 4 kts 240°
2026-05-04 10:52 48.73470 2.35856 299 ft 4 kts 241°
2026-05-04 10:52 48.73352 2.35523 296 ft 77 kts 242°
2026-05-04 10:54 48.69060 2.24857 5127 ft 225 kts 236°
2026-05-04 10:54 48.68191 2.22806 5651 ft 235 kts 236°
2026-05-04 10:56 48.57477 2.27845 9930 ft 276 kts 148°
2026-05-04 10:56 48.55935 2.29566 9955 ft 283 kts 148°
2026-05-04 10:56 48.54352 2.31313 9984 ft 281 kts 148°
2026-05-04 10:57 48.52771 2.33046 9983 ft 281 kts 148°
2026-05-04 10:57 48.51345 2.35153 10004 ft 297 kts 124°
2026-05-04 10:57 48.50689 2.38255 10204 ft 328 kts 99°
2026-05-04 10:57 48.50684 2.41825 10460 ft 352 kts 90°
2026-05-04 10:58 48.50841 2.45557 11059 ft 359 kts 89°
2026-05-04 10:58 48.51023 2.49281 11775 ft 363 kts 89°
2026-05-04 10:58 48.51206 2.53147 12514 ft 367 kts 89°
2026-05-04 10:58 48.51373 2.56998 13241 ft 370 kts 90°
2026-05-04 10:59 48.51528 2.60897 13934 ft 374 kts 90°
2026-05-04 10:59 48.51676 2.64781 14564 ft 378 kts 90°
2026-05-04 10:59 48.51822 2.68753 15262 ft 381 kts 90°
2026-05-04 10:59 48.51969 2.72821 15981 ft 385 kts 91°
2026-05-04 11:00 48.52114 2.76874 16631 ft 389 kts 91°
2026-05-04 11:01 48.62151 3.02046 20545 ft 429 kts 50°
2026-05-04 11:02 48.64135 3.05443 21039 ft 433 kts 51°
2026-05-04 11:02 48.66125 3.08885 21523 ft 436 kts 51°
2026-05-04 11:05 48.80443 3.66258 27075 ft 449 kts 102°
2026-05-04 11:06 48.80128 3.70977 27426 ft 451 kts 102°
2026-05-04 11:06 48.79818 3.75723 27751 ft 454 kts 102°
2026-05-04 11:06 48.79507 3.80500 28061 ft 456 kts 102°
2026-05-04 11:06 48.79194 3.85297 28368 ft 459 kts 102°
2026-05-04 11:08 48.75400 4.18672 30330 ft 454 kts 124°
2026-05-04 11:10 48.62882 4.45426 32531 ft 443 kts 131°
2026-05-04 11:12 48.50327 4.71878 34424 ft 442 kts 131°
2026-05-04 11:12 48.48531 4.75639 34631 ft 442 kts 131°
2026-05-04 11:12 48.46731 4.79405 34847 ft 443 kts 131°
2026-05-04 11:12 48.44932 4.83163 35061 ft 443 kts 131°
2026-05-04 11:13 48.43129 4.86923 35276 ft 442 kts 131°
2026-05-04 11:13 48.41325 4.90682 35466 ft 443 kts 131°
2026-05-04 11:13 48.39520 4.94437 35650 ft 443 kts 131°
2026-05-04 11:13 48.37715 4.98188 35849 ft 443 kts 131°
2026-05-04 11:14 48.35907 5.01940 36055 ft 443 kts 131°
2026-05-04 11:14 48.34101 5.05685 36232 ft 443 kts 131°
2026-05-04 11:14 48.32292 5.09427 36411 ft 443 kts 131°
2026-05-04 11:16 48.25567 5.40913 36988 ft 461 kts 107°
2026-05-04 11:16 48.24200 5.50268 37002 ft 457 kts 107°
2026-05-04 11:17 48.22805 5.59547 36994 ft 455 kts 107°
2026-05-04 11:19 48.17150 5.96412 37027 ft 457 kts 107°
2026-05-04 11:19 48.15695 6.05769 37019 ft 460 kts 107°
2026-05-04 11:20 48.14245 6.15050 37019 ft 461 kts 107°
2026-05-04 11:20 48.12773 6.24411 37025 ft 463 kts 107°
2026-05-04 11:22 48.06785 6.61969 37021 ft 463 kts 107°
2026-05-04 11:23 48.05275 6.71307 37020 ft 461 kts 107°
2026-05-04 11:25 48.00213 7.02229 37010 ft 457 kts 107°
2026-05-04 11:25 47.98699 7.11368 37004 ft 456 kts 108°
2026-05-04 11:27 47.91764 7.52641 37006 ft 456 kts 108°
2026-05-04 11:28 47.90059 7.61733 36999 ft 454 kts 113°
2026-05-04 11:28 47.87835 7.70534 37012 ft 454 kts 115°
2026-05-04 11:29 47.85541 7.79294 37012 ft 455 kts 115°
2026-05-04 11:29 47.83275 7.88110 37010 ft 457 kts 114°
2026-05-04 11:33 47.67591 8.49495 36998 ft 458 kts 112°
2026-05-04 11:33 47.65590 8.58460 37002 ft 457 kts 111°
2026-05-04 11:34 47.63599 8.67416 37000 ft 457 kts 111°
2026-05-04 11:34 47.61577 8.76336 36995 ft 456 kts 112°
2026-05-04 11:35 47.59536 8.85233 37000 ft 456 kts 112°
2026-05-04 11:35 47.57489 8.94109 36996 ft 456 kts 112°
2026-05-04 11:36 47.55432 9.02991 36991 ft 456 kts 112°
2026-05-04 11:36 47.53373 9.11851 36985 ft 456 kts 112°
2026-05-04 11:37 47.51305 9.20711 36988 ft 455 kts 112°
2026-05-04 11:37 47.49230 9.29568 36991 ft 456 kts 112°
2026-05-04 11:38 47.47150 9.38411 36997 ft 456 kts 112°
2026-05-04 11:38 47.45061 9.47258 36986 ft 456 kts 112°
2026-05-04 11:39 47.42979 9.56044 36989 ft 456 kts 112°
2026-05-04 11:41 47.37609 9.88013 37002 ft 462 kts 103°
2026-05-04 11:41 47.36348 9.97319 37002 ft 462 kts 104°
2026-05-04 11:42 47.35051 10.06600 37010 ft 461 kts 104°
2026-05-04 11:42 47.33741 10.15857 37012 ft 461 kts 104°
2026-05-04 11:43 47.32426 10.25097 37021 ft 460 kts 104°
2026-05-04 11:43 47.31109 10.34305 37040 ft 458 kts 104°
2026-05-04 11:44 47.29787 10.43492 37046 ft 458 kts 104°
2026-05-04 11:44 47.28460 10.52664 37030 ft 457 kts 104°
2026-05-04 11:45 47.27128 10.61812 37034 ft 457 kts 104°
2026-05-04 11:45 47.25788 10.70956 37022 ft 457 kts 104°
2026-05-04 11:46 47.24443 10.80087 37014 ft 456 kts 104°
2026-05-04 11:46 47.23092 10.89200 37016 ft 456 kts 104°
2026-05-04 11:47 47.21735 10.98302 36993 ft 455 kts 104°
2026-05-04 11:47 47.20373 11.07391 36974 ft 455 kts 104°
2026-05-04 11:48 47.19006 11.16461 36992 ft 454 kts 104°
2026-05-04 11:48 47.17631 11.25516 37010 ft 454 kts 104°
2026-05-04 11:49 47.16247 11.34588 36988 ft 455 kts 105°
2026-05-04 11:49 47.14854 11.43662 36993 ft 456 kts 105°
2026-05-04 11:50 47.13452 11.52750 36999 ft 457 kts 105°
2026-05-04 11:50 47.12038 11.61868 37012 ft 458 kts 105°
2026-05-04 11:51 47.10614 11.71000 37009 ft 459 kts 105°
2026-05-04 11:51 47.09182 11.80137 37012 ft 459 kts 105°
2026-05-04 11:52 47.07542 11.89162 37006 ft 456 kts 115°
2026-05-04 11:52 47.04997 11.97579 37036 ft 454 kts 117°
2026-05-04 11:53 47.02329 12.06052 37045 ft 455 kts 117°
2026-05-04 11:53 46.99717 12.14423 37056 ft 454 kts 117°
2026-05-04 11:55 46.89298 12.48072 37087 ft 453 kts 116°
2026-05-04 11:56 46.86688 12.56442 37083 ft 452 kts 116°
2026-05-04 11:56 46.84073 12.64794 37065 ft 452 kts 116°
2026-05-04 11:57 46.81456 12.73129 37062 ft 451 kts 116°
2026-05-04 11:57 46.78839 12.81435 37058 ft 450 kts 116°
2026-05-04 11:58 46.76226 12.89700 37083 ft 447 kts 116°
2026-05-04 11:58 46.73614 12.97935 37068 ft 448 kts 116°
2026-05-04 11:59 46.70992 13.06175 37079 ft 449 kts 117°
2026-05-04 11:59 46.68356 13.14433 37082 ft 450 kts 116°
2026-05-04 12:00 46.65702 13.22716 37082 ft 453 kts 116°
2026-05-04 12:00 46.63030 13.31036 37072 ft 455 kts 116°
2026-05-04 12:01 46.60335 13.39397 37064 ft 458 kts 117°
2026-05-04 12:02 46.50808 13.68744 37071 ft 459 kts 117°
2026-05-04 12:03 46.48067 13.77123 37063 ft 459 kts 117°
2026-05-04 12:03 46.45325 13.85482 37060 ft 458 kts 117°
2026-05-04 12:04 46.42581 13.93818 37060 ft 458 kts 117°
2026-05-04 12:04 46.39851 14.02085 37065 ft 457 kts 117°
2026-05-04 12:05 46.37083 14.10439 37068 ft 457 kts 117°
2026-05-04 12:05 46.34329 14.18725 37069 ft 456 kts 117°
2026-05-04 12:06 46.31570 14.27000 37077 ft 456 kts 117°
2026-05-04 12:06 46.28826 14.35204 37072 ft 457 kts 117°
2026-05-04 12:07 46.26054 14.43468 37082 ft 457 kts 117°
2026-05-04 12:07 46.23274 14.51727 37072 ft 458 kts 117°
2026-05-04 12:08 46.20935 14.58654 37073 ft 458 kts 117°
2026-05-04 12:08 46.18136 14.66924 37079 ft 459 kts 117°
2026-05-04 12:09 46.15322 14.75210 37079 ft 461 kts 117°
2026-05-04 12:09 46.12510 14.83461 37075 ft 462 kts 117°
2026-05-04 12:10 46.09671 14.91770 37068 ft 463 kts 117°
2026-05-04 12:10 46.06820 15.00087 37062 ft 463 kts 117°
2026-05-04 12:11 46.03964 15.08392 37059 ft 462 kts 117°
2026-05-04 12:11 46.01111 15.16663 37058 ft 461 kts 117°
2026-05-04 12:12 45.98256 15.24914 37049 ft 460 kts 117°
2026-05-04 12:12 45.95404 15.33129 37056 ft 459 kts 117°
2026-05-04 12:14 45.84445 15.64466 37047 ft 456 kts 116°
2026-05-04 12:15 45.81582 15.72593 37055 ft 456 kts 116°
2026-05-04 12:15 45.78713 15.80710 37071 ft 457 kts 116°
2026-05-04 12:16 45.75832 15.88837 37076 ft 458 kts 116°
2026-05-04 12:16 45.72942 15.96967 37079 ft 459 kts 116°
2026-05-04 12:17 45.70040 16.05104 37082 ft 460 kts 116°
2026-05-04 12:17 45.67122 16.13262 37083 ft 461 kts 116°
2026-05-04 12:18 45.64193 16.21425 37077 ft 462 kts 116°
2026-05-04 12:18 45.61252 16.29597 37073 ft 462 kts 116°
2026-05-04 12:19 45.58303 16.37765 37083 ft 463 kts 116°
2026-05-04 12:19 45.55348 16.45926 37074 ft 463 kts 116°
2026-05-04 12:20 45.52386 16.54086 37074 ft 463 kts 116°
2026-05-04 12:20 45.49422 16.62223 37067 ft 462 kts 116°
2026-05-04 12:21 45.46458 16.70335 37067 ft 461 kts 116°
2026-05-04 12:21 45.43496 16.78418 37077 ft 460 kts 116°
2026-05-04 12:22 45.40555 16.86421 37083 ft 459 kts 116°
2026-05-04 12:22 45.37594 16.94453 37078 ft 458 kts 116°
2026-05-04 12:23 45.34632 17.02467 37087 ft 457 kts 116°
2026-05-04 12:23 45.31668 17.10460 37085 ft 457 kts 116°
2026-05-04 12:24 45.28702 17.18438 37087 ft 457 kts 116°
2026-05-04 12:24 45.25730 17.26406 37089 ft 457 kts 116°
2026-05-04 12:25 45.22750 17.34373 37095 ft 457 kts 117°
2026-05-04 12:25 45.19764 17.42335 37088 ft 457 kts 116°
2026-05-04 12:26 45.16770 17.50291 37092 ft 458 kts 117°
2026-05-04 12:26 45.13767 17.58250 37089 ft 458 kts 117°
2026-05-04 12:27 45.10760 17.66198 37100 ft 458 kts 117°
2026-05-04 12:27 45.07746 17.74141 37092 ft 458 kts 117°
2026-05-04 12:28 45.04724 17.82081 37100 ft 458 kts 117°
2026-05-04 12:28 45.01695 17.90018 37095 ft 459 kts 117°
2026-05-04 12:29 44.98661 17.97942 37097 ft 458 kts 117°
2026-05-04 12:29 44.95623 18.05857 37099 ft 458 kts 117°
2026-05-04 12:30 44.92581 18.13761 37092 ft 458 kts 117°
2026-05-04 12:30 44.89533 18.21655 37097 ft 458 kts 117°
2026-05-04 12:31 44.86485 18.29527 37099 ft 457 kts 117°
2026-05-04 12:31 44.83432 18.37391 37102 ft 457 kts 117°
2026-05-04 12:32 44.78839 18.49177 37097 ft 457 kts 117°
2026-05-04 12:33 44.75773 18.57021 37101 ft 458 kts 117°
2026-05-04 12:33 44.72699 18.64859 37097 ft 458 kts 117°
2026-05-04 12:34 44.69621 18.72686 37103 ft 457 kts 117°
2026-05-04 12:34 44.66537 18.80508 37112 ft 458 kts 117°
2026-05-04 12:35 44.63445 18.88329 37105 ft 458 kts 117°
2026-05-04 12:35 44.60867 18.94832 37108 ft 459 kts 117°